CAPE
114 0 40 450 382 642 506 402 397 18 377 219 184 275 252 46 158 229 0 0 0 0 0 0 3 9 9 49 38 14 170 229 297 633 544 603 617 466 505 554 452 271 752 1245
118 58 13 23 58 417 420 558 220 0 55 245 283 447 381 344 230 417 2 0 0 0 0 0 2 15 123 285 214 179 201 319 456 692 715 702 776 759 723 739 713 657 506 937
83 76 296 166 53 137 29 242 8 0 286 196 350 128 104 238 474 417 157 40 1 0 0 0 2 2 81 399 305 408 281 753 623 813 877 1010 1005 1102 1034 897 991 924 831 971
406 239 118 92 260 386 123 0 0 0 21 426 47 1 0 111 140 369 354 223 162 15 0 0 0 0 57 327 481 554 662 565 1085 1123 1172 1214 1401 1415 1481 1518 1389 1267 1198 1051
78 73 280 105 268 45 34 4 1 0 1 0 0 0 0 0 0 234 225 336 359 192 122 0 0 24 97 239 479 524 643 849 1077 1503 1442 1420 1575 1763 1686 1561 1593 1567 1487 1519
155 224 80 9 114 104 42 0 8 0 0 0 0 0 0 0 0 0 0 262 508 422 320 133 85 130 191 421 527 843 797 900 1261 1496 1643 1663 1674 1623 1789 1982 2172 2368 2871 1850
0 0 0 37 62 20 0 0 1 24 17 7 0 0 8 0 0 0 0 0 239 311 444 381 309 408 523 611 999 1116 1285 1485 1551 1732 1940 1593 1746 1961 2248 2290 2408 2752 3124 2917
0 6 77 38 82 3 0 0 1 25 3 2 0 9 0 0 0 0 0 0 0 0 46 147 500 668 781 831 859 1309 1593 1665 1708 2019 2354 2344 2098 1992 2274 2561 2826 2967 2818 2601
8 33 34 9 0 0 0 0 0 0 0 0 0 0 0 0 0 1 0 0 0 0 34 374 570 716 589 666 897 571 658 1630 1848 2007 2482 2903 2798 2770 2859 3039 2978 2938 2692 2370
51 48 2 0 0 0 0 0 0 0 0 1 0 0 0 4 0 5 0 0 0 5 26 57 131 203 101 363 383 138 350 1470 2022 2487 2755 3322 3545 3185 3113 3024 3095 3025 2986 2707
38 5 0 1 0 0 0 0 0 0 0 0 0 0 0 0 0 0 0 0 0 7 32 96 151 123 69 181 176 0 1912 2323 2908 3136 3100 3100 3422 3197 3086 2899 2891 2838 2623 2373
75 2 0 3 0 0 0 0 0 0 0 0 0 0 0 0 0 0 0 43 11 35 125 175 150 158 166 141 112 18 2887 3120 2948 2759 2534 1440 155 2586 3409 3384 3100 2900 2714 2554
73 64 35 0 0 0 0 0 0 0 0 0 0 0 0 0 0 0 33 18 5 2 1 0 79 1080 1138 1007 1089 1260 1423 1330 1821 940 0 1 4 803 3226 3440 3205 3019 2950 2721
110 0 0 0 0 0 0 0 0 0 0 0 0 8 0 0 1 6 20 0 0 0 0 116 375 632 1741 1804 914 334 821 763 607 26 13 39 0 425 3064 3223 2993 2899 2958 2509
3 0 0 0 0 0 0 0 0 0 0 0 1 0 0 0 13 8 1 0 0 0 85 466 1009 1350 1313 1081 625 270 19 368 82 0 0 0 140 393 664 1184 2360 2496 2307 2032
0 0 0 0 0 0 0 0 0 0 0 0 0 0 0 0 0 0 0 0 0 0 196 440 644 602 635 839 805 678 371 330 49 0 0 0 0 0 228 1095 1034 1286 1930 1798
0 0 0 0 0 0 0 0 0 0 0 0 0 0 0 0 0 0 0 0 0 82 150 420 525 557 636 332 267 50 126 159 11 0 0 1 0 68 46 380 1257 1624 1880 1121
0 0 0 0 0 0 0 0 0 0 0 0 0 0 0 0 0 0 0 18 55 48 66 128 481 615 707 652 629 196 251 443 206 107 20 151 259 504 379 1020 929 946 1161 1045
0 0 0 0 0 0 7 18 0 0 0 0 0 0 0 0 0 0 0 43 98 88 83 73 169 390 290 501 717 741 808 724 1027 755 397 743 682 661 719 670 572 640 688 407
0 0 0 0 0 0 0 15 1 0 6 0 0 0 0 0 0 0 1 23 13 55 33 0 40 30 0 1 284 179 377 254 318 702 514 467 364 474 425 397 433 644 742 604
0 0 0 0 0 0 0 0 4 3 0 0 0 0 0 0 0 0 2 5 4 1 0 0 0 0 0 0 79 56 90 89 105 717 534 577 680 624 540 523 584 648 642 428
0 0 0 0 0 0 0 0 0 0 0 0 0 0 0 0 0 3 22 4 0 0 0 0 0 0 0 0 6 24 141 145 144 332 675 654 572 499 624 547 391 396 335 265
0 0 0 0 0 0 0 0 0 0 0 0 0 0 0 0 0 4 58 10 0 0 0 0 6 0 0 17 5 44 238 189 271 407 251 219 266 253 329 285 312 314 372 301
0 0 0 0 0 0 0 0 0 0 0 0 0 0 0 0 0 0 0 7 0 8 15 20 23 15 33 0 0 106 150 140 243 186 294 273 212 209 182 166 257 312 345 363
0 0 0 0 0 0 0 0 0 0 0 0 0 0 0 0 0 0 0 0 2 19 21 39 30 27 14 7 0 0 1 84 271 320 211 92 69 144 224 270 329 309 225 228
0 0 0 0 0 1 0 0 0 0 0 0 0 0 0 0 0 0 0 0 0 0 0 3 15 13 28 6 0 0 3 122 139 126 225 154 144 169 190 179 202 212 72 39
CIN
-418 -0 -128 -107 -216 -149 -167 -182 -153 -95 -97 -138 -170 -162 -157 -136 -220 -166 -0 -0 -0 -0 -0 -0 -300 -486 -531 -506 -549 -593 -448 -450 -452 -335 -353 -338 -301 -384 -368 -359 -376 -505 -290 -198
-355 -203 -205 -241 -202 -155 -115 -117 -180 -30 -98 -129 -176 -124 -144 -185 -198 -148 -66 -0 -0 -0 -0 -0 -336 -524 -499 -424 -485 -573 -585 -562 -502 -389 -362 -349 -323 -340 -304 -320 -340 -374 -469 -304
-359 -211 -264 -249 -150 -130 -125 -114 -31 -0 -82 -93 -156 -152 -317 -196 -113 -137 -211 -256 -75 -0 -0 -0 -160 -273 -488 -439 -500 -500 -569 -498 -472 -443 -424 -403 -373 -345 -343 -366 -311 -319 -351 -339
-326 -295 -229 -156 -110 -86 -102 -0 -0 -0 -23 -79 -84 -19 -0 -136 -133 -129 -164 -229 -249 -288 -0 -0 -0 -0 -528 -447 -456 -438 -450 -530 -510 -486 -439 -392 -329 -321 -303 -270 -278 -272 -277 -326
-105 -153 -80 -59 -81 -87 -63 -58 -33 -0 -206 -18 -0 -0 -0 -0 -0 -119 -180 -195 -192 -285 -370 -19 -0 -485 -504 -459 -477 -466 -470 -439 -429 -478 -432 -474 -417 -370 -354 -344 -299 -297 -302 -278
-210 -193 -125 -106 -60 -84 -81 -0 -93 -0 -0 -0 -50 -0 -28 -0 -0 -0 -0 -145 -173 -210 -253 -374 -441 -428 -420 -382 -432 -412 -473 -455 -410 -433 -413 -391 -378 -398 -414 -345 -246 -189 -138 -258
-0 -0 -0 -73 -60 -82 -0 -0 -51 -66 -76 -48 -0 -0 -14 -0 -0 -0 -0 -0 -188 -188 -192 -238 -289 -320 -315 -296 -356 -400 -466 -494 -486 -449 -399 -409 -368 -346 -321 -296 -254 -183 -136 -155
-0 -26 -58 -64 -64 -15 -0 -0 -29 -21 -39 -38 -0 -45 -0 -0 -0 -0 -0 -0 -0 -0 -237 -243 -266 -276 -287 -292 -368 -369 -369 -425 -434 -441 -440 -413 -377 -369 -317 -272 -231 -198 -182 -182
-71 -151 -147 -146 -0 -0 -0 -0 -0 -0 -0 -0 -0 -0 -0 -0 -0 -79 -0 -0 -0 -0 -287 -259 -248 -204 -333 -396 -296 -430 -486 -386 -399 -479 -409 -380 -339 -265 -258 -255 -215 -202 -222 -230
-207 -109 -98 -3 -0 -0 -0 -0 -0 -0 -0 -17 -0 -0 -0 -48 -0 -54 -0 -53 -0 -149 -408 -409 -422 -354 -495 -447 -394 -521 -649 -513 -392 -406 -337 -298 -161 -276 -276 -226 -184 -167 -178 -192
-297 -119 -0 -6 -0 -0 -0 -0 -0 -0 -0 -0 -0 -0 -0 -0 -0 -0 -0 -0 -0 -135 -558 -575 -580 -608 -631 -559 -562 -0 -560 -531 -423 -284 -260 -162 -91 -195 -239 -215 -191 -185 -194 -207
-250 -144 -2 -83 -0 -0 -0 -0 -0 -0 -0 -0 -0 -0 -0 -0 -0 -0 -0 -397 -508 -589 -571 -584 -598 -667 -697 -685 -824 -1034 -399 -346 -277 -214 -218 -256 -1216 -75 -100 -129 -150 -167 -160 -172
-285 -220 -98 -0 -0 -0 -0 -0 -0 -0 -0 -0 -0 -0 -0 -0 -0 -0 -406 -514 -483 -488 -415 -253 -517 -308 -307 -407 -551 -577 -515 -464 -231 -501 -0 -92 -165 -244 -75 -134 -134 -149 -147 -162
-269 -0 -0 -0 -0 -0 -0 -0 -0 -0 -0 -0 -0 -29 -0 -0 -114 -233 -458 -0 -0 -0 -0 -601 -542 -472 -316 -356 -555 -786 -560 -632 -436 -867 -711 -358 -46 -287 -42 -100 -148 -155 -152 -176
-32 -0 -0 -0 -0 -0 -0 -0 -0 -0 -0 -0 -28 -0 -0 -0 -397 -481 -120 -0 -0 -0 -607 -530 -495 -466 -496 -517 -578 -663 -854 -491 -639 -0 -0 -0 -100 -456 -285 -37 -69 -130 -169 -153
-0 -0 -0 -0 -0 -0 -0 -0 -0 -0 -0 -0 -0 -0 -0 -0 -0 -0 -0 -0 -0 -8 -561 -500 -475 -507 -452 -371 -348 -357 -415 -408 -721 -0 -0 -0 -0 -1 -424 -182 -47 -5 -14 -166
-0 -0 -0 -0 -0 -0 -0 -0 -0 -0 -0 -0 -0 -0 -0 -0 -0 -0 -0 -0 -0 -536 -552 -445 -388 -371 -339 -490 -578 -703 -573 -617 -195 -0 -0 -114 -0 -403 -461 -200 -45 -50 -100 -227
-0 -0 -0 -0 -0 -0 -0 -0 -0 -0 -0 -0 -0 -0 -0 -0 -0 -0 -0 -564 -515 -531 -542 -517 -306 -229 -186 -215 -214 -448 -382 -257 -382 -386 -230 -343 -256 -198 -190 -90 -107 -99 -109 -127
-0 -0 -0 -0 -0 -0 -138 -214 -160 -0 -0 -0 -0 -0 -0 -0 -0 -0 -0 -553 -475 -475 -478 -458 -364 -244 -288 -146 -90 -69 -47 -44 -41 -70 -98 -53 -60 -56 -71 -85 -98 -107 -94 -142
-0 -0 -0 -0 -0 -0 -0 -343 -171 -0 -433 -0 -0 -0 -0 -0 -0 -0 -33 -479 -493 -481 -491 -0 -441 -444 -0 -194 -173 -172 -110 -135 -73 -47 -39 -75 -99 -81 -77 -87 -91 -80 -75 -98
-0 -0 -0 -0 -0 -0 -0 -0 -121 -225 -9 -0 -0 -0 -0 -0 -0 -0 -283 -280 -293 -183 -0 -0 -0 -0 -0 -0 -240 -164 -142 -92 -78 -81 -87 -76 -64 -56 -56 -61 -54 -41 -52 -87
-0 -0 -0 -0 -0 -0 -0 -0 -0 -0 -0 -0 -0 -0 -0 -0 -0 -272 -333 -231 -0 -0 -0 -0 -0 -0 -0 -0 -79 -107 -88 -82 -114 -114 -89 -62 -70 -78 -33 -43 -62 -69 -90 -87
-0 -0 -0 -0 -0 -0 -0 -0 -0 -0 -0 -0 -0 -0 -0 -0 -0 -248 -280 -344 -0 -0 -0 -0 -74 -6 -0 -112 -42 -87 -69 -115 -142 -141 -128 -132 -121 -116 -100 -94 -100 -84 -73 -56
-0 -0 -0 -0 -0 -0 -0 -0 -0 -0 -0 -0 -0 -0 -0 -0 -0 -0 -0 -347 -0 -93 -88 -85 -129 -136 -161 -0 -0 -181 -157 -195 -108 -118 -102 -113 -109 -124 -165 -165 -108 -58 -58 -49
-0 -0 -0 -0 -0 -0 -0 -0 -0 -0 -0 -0 -0 -0 -0 -0 -0 -0 -0 -0 -82 -131 -156 -132 -150 -160 -144 -139 -0 -0 -38 -181 -89 -74 -108 -147 -166 -140 -122 -114 -65 -52 -86 -65
-0 -0 -0 -0 -0 -57 -0 -0 -0 -0 -0 -0 -0 -0 -0 -0 -0 -0 -0 -0 -0 -0 -0 -55 -150 -156 -237 -100 -0 -0 -43 -69 -60 -82 -76 -95 -101 -111 -89 -71 -105 -119 -125 -32
Wind_Speed
1 5 7 9 14 9 8 5 10 10 8 7 7 5 3 6 6 8 9 10 10 10 10 10 9 11 10 8 9 9 9 8 6 3 3 2 4 3 4 5 7 8 10 11
4 1 7 11 10 15 12 12 13 8 8 6 7 7 5 5 8 13 13 12 12 8 7 9 11 11 13 13 14 12 12 12 10 7 5 4 4 4 5 6 7 9 9 11
4 8 13 12 10 13 10 17 9 6 7 0 8 7 6 6 7 10 14 14 12 15 15 15 14 15 15 16 17 17 17 16 14 13 4 2 1 2 2 5 6 9 7 9
4 7 10 14 7 3 4 10 6 9 8 5 1 4 5 7 8 14 16 14 14 16 15 16 18 15 17 18 17 18 18 18 16 16 13 13 10 10 8 8 7 9 10 10
4 3 4 9 4 1 10 1 7 5 7 5 2 5 9 4 7 13 15 17 17 18 18 19 20 19 19 18 17 16 15 15 15 15 16 13 14 10 6 4 7 7 6 9
11 7 6 7 9 10 9 6 5 6 4 2 7 6 7 6 9 6 6 17 20 19 18 19 21 18 17 15 15 16 15 16 15 14 16 15 16 12 7 7 6 5 4 5
5 6 5 7 4 5 6 6 4 5 4 6 5 3 11 5 8 11 13 10 17 18 17 15 15 16 12 13 14 15 17 20 19 17 16 18 17 13 13 10 7 6 4 3
2 9 1 2 7 6 2 9 7 6 4 1 6 4 7 5 7 5 5 6 3 10 10 11 15 12 14 14 13 15 17 20 17 18 21 18 17 10 9 8 6 5 5 5
4 6 6 9 5 7 4 0 6 7 5 4 3 5 7 4 2 4 8 12 10 8 8 10 13 17 13 13 16 15 11 16 18 20 14 14 12 9 9 8 6 6 6 5
1 5 5 7 6 3 4 3 5 5 3 1 3 4 5 2 3 4 4 8 5 5 6 5 6 8 6 9 13 6 7 9 14 11 10 8 13 14 8 5 7 6 6 5
3 4 9 4 0 5 5 5 7 6 5 7 2 5 5 6 7 9 3 6 6 2 3 5 6 7 7 7 8 7 5 7 5 8 7 3 17 7 6 6 5 6 5 6
7 5 4 6 8 6 5 5 6 7 6 2 6 4 9 10 8 7 7 8 7 10 6 4 5 8 9 9 9 8 2 2 6 7 11 19 22 9 3 4 7 7 8 7
7 1 3 12 9 7 6 5 3 5 4 3 7 5 5 5 10 8 11 8 7 8 9 9 9 7 7 6 7 10 11 12 13 10 12 9 5 24 11 11 10 8 9 9
6 4 7 7 7 4 2 4 4 6 4 3 1 7 4 7 8 7 7 6 6 6 6 4 6 7 5 7 6 8 8 9 6 4 7 6 14 18 14 14 11 11 11 8
9 8 6 3 3 3 1 5 8 3 3 7 8 5 3 4 7 4 3 6 9 9 9 7 6 7 7 7 6 6 5 5 4 6 4 5 6 7 12 17 14 8 7 7
4 2 3 2 3 7 4 8 12 11 11 11 9 5 3 3 6 9 7 7 8 8 6 6 7 5 6 6 4 1 2 5 4 5 7 6 6 2 4 14 20 17 20 8
5 6 3 2 3 6 7 7 6 7 6 9 6 4 2 6 8 6 7 7 6 7 7 7 7 6 5 5 5 6 5 2 3 5 6 5 7 8 7 8 15 16 12 5
4 4 4 2 5 3 2 9 16 17 10 10 11 5 4 4 3 3 5 7 7 7 6 7 4 4 4 5 6 5 6 3 4 6 7 6 9 9 11 8 5 7 5 5
7 6 6 5 2 5 5 3 1 6 3 1 7 4 4 2 3 5 4 4 6 6 4 3 2 3 2 3 4 5 6 6 4 6 7 8 7 8 8 9 9 8 5 5
10 8 8 4 4 4 8 5 5 6 1 3 6 4 3 4 4 5 4 4 5 5 2 4 3 3 2 3 3 1 3 4 5 7 7 7 6 6 7 7 8 6 4 8
5 4 5 3 4 7 6 5 2 2 6 3 4 3 3 2 5 3 1 1 0 1 2 1 1 3 4 4 3 6 6 7 7 6 6 7 7 8 8 8 7 9 10 8
5 5 4 3 2 6 1 7 1 4 2 5 3 3 5 4 4 1 1 2 4 5 6 6 4 5 6 6 4 7 7 7 7 7 6 7 8 7 8 8 9 9 9 10
2 7 5 4 5 5 6 8 4 4 5 2 5 5 5 4 4 4 3 3 5 6 6 4 6 7 8 9 11 16 12 6 6 5 7 6 8 8 8 7 9 8 8 8
6 4 6 6 3 3 6 4 5 4 5 5 5 4 4 4 6 5 4 5 6 7 7 7 8 9 9 9 9 9 8 11 9 7 9 8 9 9 8 6 6 7 8 8
5 5 6 4 2 5 5 2 4 3 5 4 5 3 3 4 3 1 4 6 6 7 6 5 6 5 7 7 7 8 8 9 12 10 9 8 7 8 10 8 8 8 10 9
1 7 6 6 5 6 4 3 2 6 4 4 3 3 6 5 4 5 5 3 4 6 6 6 6 5 7 7 8 9 9 8 8 8 8 8 8 8 8 8 10 10 17 12
Wind_Direction
45 89 148 192 194 219 252 259 268 275 196 148 199 230 233 183 175 182 194 192 188 186 191 183 176 171 169 159 164 171 169 192 166 156 169 203 220 234 244 226 220 197 208 217
40 240 187 206 231 232 244 258 270 273 219 132 188 238 212 180 206 196 188 197 193 186 174 189 182 173 172 176 182 184 185 186 191 186 184 171 176 221 227 231 235 227 204 208
122 243 314 277 231 233 254 226 242 126 126 206 102 328 283 260 219 223 195 203 191 192 187 189 191 191 184 185 188 189 190 186 194 193 166 176 169 289 212 244 244 245 227 216
206 261 270 294 285 161 327 201 202 146 108 157 185 249 272 246 228 197 195 200 201 198 198 195 194 193 189 197 194 196 199 194 194 187 191 198 203 214 219 225 231 236 235 231
262 228 261 308 253 113 229 358 58 360 84 103 233 86 260 189 211 196 203 200 208 204 198 197 201 198 198 191 195 200 205 209 205 194 203 200 203 208 201 199 231 229 231 230
260 284 284 232 262 263 254 132 43 64 93 36 220 132 271 201 198 229 221 204 208 208 204 205 205 200 200 198 200 200 200 213 212 206 209 210 216 212 196 207 217 238 237 226
305 255 247 200 265 313 189 74 8 0 10 223 171 89 240 252 227 207 221 210 211 214 202 203 206 206 199 205 199 205 212 212 204 202 208 212 215 210 211 207 209 211 230 241
77 326 305 50 196 205 234 139 154 194 208 246 143 249 260 222 201 199 235 240 269 120 146 181 206 202 202 202 201 197 208 224 216 207 207 206 212 207 209 205 199 208 214 230
158 277 297 280 280 131 288 81 193 111 22 80 233 295 322 60 157 85 99 102 112 111 141 150 182 204 194 197 213 209 202 217 214 215 207 205 206 214 209 200 202 210 205 213
20 308 234 301 358 345 160 209 14 11 117 191 276 328 243 120 222 39 75 77 60 89 151 196 220 230 203 217 227 206 205 215 229 213 194 166 221 219 188 187 210 222 220 222
83 61 306 301 354 180 2 9 46 108 123 153 123 298 250 218 67 79 88 90 99 137 238 263 286 293 277 261 272 275 250 217 178 125 127 125 232 194 170 186 217 223 228 224
192 146 269 277 270 249 183 166 121 111 298 59 112 303 340 83 79 113 61 55 59 74 94 129 230 257 274 275 283 261 327 75 34 33 42 28 350 5 306 268 246 211 225 229
175 300 304 337 349 0 50 335 105 112 89 192 118 227 334 44 52 39 76 61 52 52 36 18 11 355 267 279 32 78 62 64 35 56 81 108 188 274 254 245 231 231 237 235
96 172 165 190 216 205 325 357 63 102 86 137 229 149 302 43 57 44 44 56 63 63 53 37 15 348 12 76 81 95 108 111 150 200 225 219 215 241 251 235 228 229 230 230
164 200 187 221 251 63 173 359 347 65 200 132 199 128 275 86 97 92 70 34 33 31 42 41 43 12 42 70 79 77 63 91 222 243 296 301 306 307 335 305 261 255 237 242
218 226 178 332 16 46 38 350 74 79 95 91 122 113 222 71 68 43 25 28 23 33 54 45 52 46 27 20 32 16 162 236 262 221 255 273 276 326 304 322 309 321 289 247
148 136 83 285 358 53 15 347 67 71 26 125 145 171 153 60 70 38 14 26 49 68 51 51 44 36 14 360 355 344 329 66 240 243 275 294 296 316 308 276 261 243 245 207
118 97 57 168 42 79 256 66 80 81 52 67 83 77 70 114 171 92 18 100 72 69 63 60 74 55 1 331 331 319 318 327 274 294 288 302 296 276 255 256 319 301 294 254
88 96 59 94 80 288 316 27 33 127 11 51 111 87 60 22 91 18 23 89 108 92 83 105 139 112 63 359 325 345 359 351 331 276 281 287 302 310 314 314 306 291 266 244
58 58 109 78 111 188 233 282 113 126 123 262 106 73 73 61 46 267 324 71 73 82 87 55 79 164 42 338 254 186 263 247 268 273 281 283 278 279 290 285 297 297 286 282
29 14 105 155 187 285 257 264 13 195 209 198 89 57 55 61 197 238 137 54 137 156 13 72 99 31 306 298 293 333 308 302 271 268 272 279 284 278 277 279 277 284 279 273
132 131 200 109 164 278 51 40 93 193 152 97 59 61 72 71 52 148 80 12 351 340 335 340 338 320 298 303 304 301 277 280 302 278 273 275 261 258 272 252 260 256 260 270
29 179 167 166 195 278 15 104 102 137 117 53 77 64 100 66 12 339 236 269 312 304 297 315 284 314 328 336 351 337 324 299 283 286 286 281 266 272 266 253 265 277 269 262
322 128 110 87 324 79 85 74 91 85 82 80 94 116 78 36 12 9 357 333 330 310 333 331 1 357 1 340 355 345 313 319 304 306 302 297 305 297 290 275 277 277 276 275
211 53 111 43 69 61 28 116 160 137 114 82 67 65 73 81 19 35 1 3 350 5 17 19 30 357 330 328 321 305 331 330 308 310 307 300 289 297 305 300 286 278 274 249
334 164 139 197 206 140 230 281 156 89 101 108 105 333 359 18 346 37 48 25 13 17 360 12 352 334 304 292 292 302 305 313 313 313 306 305 303 302 306 297 299 255 253 265